This demonstration page uses our WeatherBlox Daily Observations layout. Learn more.

Left ArrowRight Arrow

Hourly Observations for April 28, 2017

Temp ( °F °C ) Dew Point ( °F °C ) Humidity (%) Winds ( mph kmh ) Pressure ( in mb ) Visibility ( mi km ) Precip ( " mm )
12:53 am 00:53 Clear 30 -1.1 29 -1.7 96 96 Calm 29.93 1013 10 16 0.00 0.00
1:53 am 01:53 Clear 29 -1.7 28 -2.2 96 96 SSE 5 7 29.94 1014 10 16 0.00 0.00
2:53 am 02:53 Clear 32 0 31 -0.6 96 96 Calm 29.93 1014 10 16 0.00 0.00
3:53 am 03:53 Clear 29 -1.7 28 -2.2 96 96 NNW 6 9 29.96 1015 10 16 0.00 0.00
4:53 am 04:53 Clear 29 -1.7 28 -2.2 96 96 Calm 29.98 1015 10 16 0.00 0.00
5:41 am 05:41 Partly Cloudy 29 -1.7 28 -2.2 96 96 Calm 30.06 1018 10 16 0.00 0.00
5:49 am 05:49 Mostly Cloudy 28 -2 28 -2 100 100 Calm 30.06 1018 10 16 0.00 0.00
5:53 am 05:53 Mostly Cloudy 28 -2.2 27 -2.8 96 96 Calm 30.01 1016 10 16 0.00 0.00
6:53 am 06:53 Cloudy with Mist and Fog 32 0 31 -0.6 96 96 SE 6 9 30.01 1016 6 10 0.00 0.00
7:01 am 07:01 Cloudy with Mist and Fog 32 0 32 0 100 100 Calm 30.09 1019 2 3 0.00 0.00
7:11 am 07:11 Cloudy 33 0.6 33 0.6 100 100 Calm 30.06 1018 7 11 0.00 0.00
7:53 am 07:53 Cloudy 33 0.6 32 0 96 96 Calm 30.04 1017 10 16 0.00 0.00
8:07 am 08:07 Cloudy 34 1.1 34 1.1 100 100 Calm 30.09 1019 10 16 0.00 0.00
8:53 am 08:53 Partly Cloudy 40 4.4 37 2.8 89 89 ENE 3 6 30.05 1018 10 16 0.00 0.00
9:24 am 09:24 Mostly Cloudy 43 6 37 3 81 81 Calm 30.06 1018 10 16 0.00 0.00
9:53 am 09:53 Cloudy 44 6.7 38 3.3 79 79 Calm 30.07 1018 10 16 0.00 0.00
10:04 am 10:04 Cloudy 45 7 39 4 81 81 Calm 30.06 1018 10 16 0.00 0.00
10:53 am 10:53 Cloudy 47 8.3 38 3.3 71 71 Calm 30.08 1019 10 16 0.00 0.00
11:53 am 11:53 Cloudy 49 9.4 37 2.8 64 64 WNW 10 17 30.09 1019 10 16 0.00 0.00
12:53 pm 12:53 Mostly Cloudy 50 10 37 2.8 61 61 NW 8 13 30.11 1020 10 16 0.00 0.03
1:51 pm 13:51 Mostly Cloudy 48 9 37 3 66 66 NNW 16 26 30.06 1018 10 16 0.00 0.00
1:53 pm 13:53 Mostly Cloudy 49 9.4 38 3.3 66 66 NW 18 30 30.13 1020 10 16 0.00 0.00
2:24 pm 14:24 Mostly Cloudy 50 10 37 3 62 62 NNW 17 28 30.06 1018 10 16 0.00 0.00
2:31 pm 14:31 Mostly Cloudy 49 9.4 37 2.8 64 64 NNW 15 24 30.09 1019 10 16 0.00 0.00
2:46 pm 14:46 Partly Cloudy 52 11 36 2 54 54 N 15 24 30.06 1018 10 16 0.00 0.00
2:53 pm 14:53 Partly Cloudy 51 10.6 35 1.7 54 54 NNW 10 17 30.14 1021 10 16 0.00 0.00
3:53 pm 15:53 Mostly Cloudy 50 10 33 0.6 52 52 NNW 7 11 30.15 1021 10 16 0.00 0.00
4:53 pm 16:53 Cloudy 50 10 31 -0.6 48 48 WNW 6 9 30.15 1021 10 16 0.00 0.00
5:53 pm 17:53 Cloudy 51 10.6 31 -0.6 46 46 WNW 13 20 30.16 1021 10 16 0.00 0.00
6:53 pm 18:53 Partly Cloudy 48 8.9 30 -1.1 50 50 W 7 11 30.17 1022 10 16 0.00 0.00
7:53 pm 19:53 Mostly Cloudy 48 8.9 28 -2.2 46 46 WNW 3 6 30.18 1022 10 16 0.00 0.00
8:53 pm 20:53 Cloudy 46 7.8 28 -2.2 50 50 WSW 3 6 30.19 1022 10 16 0.00 0.00
9:53 pm 21:53 Mostly Clear 36 2.2 29 -1.7 76 76 SSW 5 7 30.22 1023 10 16 0.00 0.00
10:53 pm 22:53 Clear 32 0 28 -2.2 85 85 S 6 9 30.23 1024 10 16 0.00 0.00
11:53 pm 23:53 Clear 34 1.1 29 -1.7 82 82 S 8 13 30.22 1023 10 16 0.00 0.00

Powered by AerisWeather